Dewpoint
11 12 13 14 15 15 16 16 16 16 16 16 15 14 13 13 13 14 14 14 14 14 14 14 14 14 13 13 13 13 14 15 15 15 14 13 13 13 13 13 14 14
11 11 12 13 15 15 16 16 16 16 16 16 15 14 14 13 13 13 14 14 14 14 14 14 14 14 14 14 13 13 14 15 16 15 14 14 14 13 13 13 13 14
11 11 12 13 14 15 16 16 16 16 16 16 15 15 14 14 14 14 14 14 15 15 14 14 13 13 13 14 14 14 15 15 16 15 15 15 14 14 13 13 13 13
12 11 12 12 13 14 15 16 16 16 16 16 15 15 15 15 15 14 14 14 14 14 14 14 13 13 13 14 14 14 15 15 15 15 15 15 14 14 14 13 13 13
12 11 11 12 12 13 15 15 15 15 16 15 15 16 15 15 15 14 14 14 14 14 14 13 13 13 13 13 14 14 14 14 15 15 15 15 14 14 14 14 13 13
12 11 11 11 11 12 13 14 15 15 15 15 15 15 15 15 15 14 14 13 13 13 13 13 13 13 13 13 14 14 14 14 14 14 14 14 14 14 14 14 14 13
12 11 10 10 10 11 12 13 14 15 15 15 15 15 15 15 15 14 14 14 13 13 13 13 13 13 14 14 14 14 13 13 13 13 13 13 13 14 13 13 14 14
12 12 11 10 10 10 10 11 13 14 15 15 15 15 15 15 15 14 14 13 13 13 13 14 14 14 15 15 15 14 14 13 13 13 13 13 13 13 13 13 14 14
12 12 12 11 10 10 10 10 11 13 15 15 15 15 14 14 15 14 14 13 13 13 13 14 14 14 14 15 15 15 14 14 13 13 12 12 12 13 13 13 13 13
13 13 13 13 11 10 9 10 10 12 13 14 14 14 14 14 14 14 13 12 12 12 13 14 14 14 15 15 15 15 15 14 14 13 12 12 12 12 12 13 13 13
13 14 14 14 13 11 10 10 10 11 12 13 14 13 13 13 13 13 12 12 12 12 12 13 14 14 15 15 15 15 15 14 14 13 13 12 12 12 12 12 12 12
14 14 14 14 14 13 12 11 10 10 11 13 13 13 12 12 11 11 11 11 11 11 12 12 13 14 15 15 15 15 15 15 14 14 13 13 12 11 11 11 11 11
14 14 14 14 15 14 14 12 11 10 11 12 13 13 13 12 11 10 10 10 11 11 12 12 13 13 14 15 15 16 15 15 15 14 14 13 12 12 11 11 10 10
14 14 14 15 15 15 15 14 13 11 11 11 12 13 13 13 12 11 9 9 9 9 10 11 11 12 13 14 15 15 15 15 15 15 14 14 13 13 13 12 11 10
13 13 14 14 15 15 15 15 14 13 12 11 10 10 11 11 11 10 9 8 7 7 7 8 9 10 11 12 14 14 15 15 15 15 15 14 14 14 14 13 13 13
13 14 14 14 14 15 15 15 15 15 13 11 10 10 9 8 8 8 7 6 5 5 6 7 8 8 9 11 12 13 14 15 15 14 14 14 14 14 14 14 14 14
15 15 15 14 15 15 16 16 16 16 15 13 12 11 10 9 8 8 8 6 5 5 5 6 7 7 9 10 12 13 13 14 14 14 14 14 14 13 13 13 13 13
15 16 16 16 16 16 16 15 15 16 16 14 12 12 11 11 11 10 10 10 8 7 7 6 7 7 8 10 12 12 13 14 14 14 14 14 14 13 13 13 13 13
16 16 16 17 17 17 16 16 15 15 16 15 14 14 14 13 13 13 13 12 11 10 9 9 8 7 8 10 12 13 13 14 14 14 14 14 14 13 13 13 13 13
16 16 17 17 17 17 17 17 16 16 16 16 15 16 16 15 15 15 15 14 14 13 13 12 11 9 7 9 12 14 14 14 14 14 14 14 13 13 13 13 13 12
16 16 16 16 17 17 17 17 17 17 16 16 16 16 16 16 16 16 16 16 16 15 15 14 14 12 11 11 12 14 15 15 14 14 14 14 13 13 13 13 12 12
16 16 16 16 16 16 16 17 17 17 16 16 16 16 16 16 16 16 16 16 16 15 15 15 15 15 14 14 14 14 15 15 15 15 15 14 14 13 13 13 12 12
15 15 16 16 16 16 16 16 17 17 16 16 16 15 15 15 15 16 16 16 16 16 16 16 15 16 15 15 15 15 15 16 16 15 15 14 14 14 14 13 12 12
13 13 14 15 15 16 16 16 16 17 17 17 16 16 15 15 15 16 16 16 16 16 16 16 16 16 16 16 16 15 15 16 16 15 15 14 14 14 14 14 13 12
9 10 11 12 14 15 15 16 16 16 17 17 16 16 16 16 16 16 16 16 16 17 17 17 17 17 17 17 16 16 16 16 16 15 15 15 15 15 14 14 13 13
7 7 6 7 9 11 13 15 15 16 16 16 16 16 17 17 17 17 17 17 17 17 17 17 17 17 17 17 17 16 16 16 16 16 15 15 15 15 14 14 14 13
Wind_Speed
18 18 18 17 16 14 12 10 9 8 8 8 8 8 8 8 8 9 8 7 7 7 8 8 8 7 7 6 6 6 5 5 5 5 5 6 6 7 7 8 8 7
18 18 18 18 17 15 13 11 9 8 8 8 8 8 8 8 8 8 8 8 7 8 8 8 8 8 7 7 7 7 7 6 5 5 5 5 6 6 7 7 8 8
19 19 19 19 18 16 14 12 11 9 8 9 9 9 8 8 8 8 8 8 8 8 8 8 8 8 7 7 7 7 7 6 6 6 6 5 6 6 6 7 7 8
19 20 20 19 19 17 15 14 12 10 10 10 10 10 10 9 8 9 9 9 9 9 9 8 8 7 7 7 7 7 7 7 7 7 7 6 6 6 6 6 7 7
19 20 20 20 19 18 17 16 14 12 10 10 10 11 10 10 9 9 9 9 9 9 9 9 8 7 7 7 7 7 7 7 7 8 8 7 7 6 6 6 6 7
18 19 20 20 20 19 18 17 16 13 12 11 11 11 10 10 9 9 9 8 9 9 9 9 9 8 7 7 7 7 7 7 8 8 8 8 7 7 7 7 6 7
18 18 19 20 20 20 19 18 16 15 13 12 11 11 10 10 9 9 9 9 9 9 9 9 9 8 8 6 6 6 6 7 7 7 7 7 8 8 7 7 7 7
18 18 18 20 20 20 20 19 18 16 14 13 12 11 11 10 9 9 9 9 9 9 9 9 9 9 9 8 7 6 6 6 7 7 7 7 8 8 7 8 8 8
17 17 17 18 20 21 20 19 19 17 16 15 13 12 11 10 10 10 10 10 10 10 9 9 9 9 9 9 8 7 6 7 7 8 8 8 8 8 7 8 8 8
17 17 17 17 18 20 20 20 20 19 17 16 15 13 11 10 10 10 10 10 10 10 10 10 9 9 10 10 9 8 7 7 7 8 9 9 9 9 8 9 9 9
19 19 18 17 17 18 19 20 20 20 19 18 16 15 13 11 11 10 10 10 10 10 10 10 10 10 10 10 9 8 8 7 7 8 8 9 9 10 10 10 10 10
21 21 20 19 17 17 17 19 20 21 21 20 18 17 15 13 13 12 11 11 11 11 11 11 11 11 11 10 10 9 8 8 7 8 8 9 10 10 11 11 12 12
22 22 21 20 20 18 17 18 19 20 21 21 20 18 17 16 15 15 14 13 13 13 13 13 12 12 12 11 11 10 10 9 8 8 8 8 9 10 11 11 12 12
24 22 21 21 21 20 18 18 18 19 20 21 21 21 20 19 17 16 16 16 16 15 15 15 14 14 14 13 12 11 11 10 10 9 9 9 9 9 10 11 12 12
26 24 23 23 22 20 19 18 18 19 20 21 21 22 22 21 19 18 18 18 18 18 17 17 17 16 15 14 13 13 13 12 12 11 11 11 11 11 11 11 11 12
27 26 26 25 23 22 20 19 18 19 20 21 21 22 22 21 20 19 19 20 19 19 19 19 19 18 16 15 14 14 14 14 14 14 13 13 13 13 13 13 12 12
25 25 27 25 24 24 23 21 20 19 20 21 21 21 21 20 19 19 19 19 20 20 20 20 20 19 17 16 15 15 15 15 15 15 15 15 15 15 14 14 14 14
24 24 25 25 24 26 26 24 22 20 20 21 22 21 20 19 19 18 18 19 20 20 21 21 21 20 18 16 16 15 15 15 15 16 16 16 17 17 16 16 15 15
23 24 25 25 25 26 26 24 22 21 20 20 20 20 19 19 19 19 19 19 20 20 20 20 21 21 19 17 16 15 15 15 15 15 16 17 17 17 18 18 18 17
20 22 24 25 26 27 26 25 23 22 20 20 20 20 20 19 19 20 20 20 20 20 20 20 20 20 20 19 18 17 16 16 16 16 16 17 17 17 18 19 19 19
17 18 20 21 23 25 26 25 24 23 22 21 21 22 21 20 21 21 21 20 20 21 21 20 20 20 19 20 20 19 18 18 18 18 18 18 17 17 18 19 19 20
13 14 14 15 16 18 21 23 23 23 23 22 22 22 21 20 21 22 22 21 22 22 22 22 22 22 20 20 21 21 21 21 20 20 20 19 18 18 18 18 19 20
5 6 8 10 14 18 19 19 20 20 20 20 21 21 20 20 21 21 21 21 21 21 22 22 23 23 23 22 22 23 23 23 23 23 22 21 20 20 19 19 20 20
6 4 3 6 10 15 16 16 16 15 16 16 17 18 18 18 18 18 18 18 18 17 17 19 19 21 23 24 24 25 26 26 27 26 25 24 23 23 23 22 21 21
9 8 6 5 5 7 10 12 12 12 12 13 13 13 14 15 15 15 15 16 15 13 13 14 14 16 20 22 24 26 27 28 28 28 27 26 25 25 25 24 23 23
8 9 9 9 8 6 5 8 9 9 10 10 9 9 10 11 13 13 13 14 14 14 14 13 11 11 14 17 20 22 24 25 26 26 26 26 25 25 25 24 24 24
Wind_Direction
217 215 215 217 219 217 214 211 211 216 223 229 228 224 218 214 213 215 217 218 222 223 221 221 222 219 218 221 224 224 223 232 248 254 253 253 255 256 256 252 246 242
220 220 220 220 221 220 216 215 213 214 221 229 231 225 217 214 215 216 219 223 227 230 226 225 227 227 226 224 224 225 226 233 246 250 248 249 253 258 258 253 247 246
219 221 221 222 222 219 218 219 216 213 218 222 223 221 215 215 217 216 218 221 226 231 231 230 231 231 233 233 231 231 231 236 241 242 242 246 250 253 256 256 253 253
220 220 221 223 222 220 220 221 217 215 218 218 215 215 213 215 217 215 216 219 223 231 235 235 233 232 235 239 239 238 238 240 240 237 239 244 246 247 251 257 259 260
224 222 222 223 223 222 222 222 221 218 219 218 214 212 212 215 217 216 220 223 226 232 238 239 237 234 236 240 243 243 243 246 245 241 241 242 241 241 245 253 260 262
228 226 224 225 226 225 225 226 225 224 222 221 219 217 215 216 218 220 225 230 234 238 240 242 241 236 235 238 243 245 246 250 251 248 248 248 245 244 244 249 258 263
233 230 227 227 227 228 229 229 229 228 227 225 225 225 222 220 222 224 228 233 240 242 242 245 243 232 229 235 243 249 251 253 255 256 257 257 255 254 253 254 256 260
237 235 232 230 229 230 230 230 230 230 230 229 229 229 226 225 228 229 231 234 239 242 242 244 244 233 230 238 246 252 258 261 262 262 263 263 262 262 262 261 259 259
240 239 237 234 231 232 232 232 231 230 230 230 230 229 227 227 231 233 236 237 238 241 240 241 242 237 236 243 248 252 259 265 267 267 266 267 268 267 265 263 261 261
242 241 242 240 236 234 234 234 234 231 230 231 231 230 229 229 232 235 237 238 240 242 241 243 244 240 239 243 247 252 257 263 268 269 268 268 270 271 269 265 262 260
245 245 245 244 243 241 238 238 237 233 231 230 231 231 231 230 232 235 238 239 241 244 244 244 244 242 241 241 245 251 258 264 269 271 272 271 271 273 272 270 268 265
250 249 248 247 246 246 245 242 240 238 234 233 232 232 233 233 233 236 241 242 243 245 245 245 245 245 244 243 246 252 256 262 267 271 274 276 275 276 275 275 274 272
253 254 253 251 248 246 247 246 244 242 240 238 236 236 236 238 238 239 241 244 244 245 245 246 246 246 246 245 246 252 255 257 261 266 270 273 275 276 276 275 276 276
250 254 255 254 250 246 245 246 245 244 243 242 240 240 240 241 243 244 246 246 245 244 244 246 247 246 246 245 246 251 256 258 261 265 269 272 274 275 276 276 275 275
245 248 253 254 252 247 242 243 244 242 242 243 243 242 241 241 242 244 247 248 247 245 244 244 245 245 244 244 246 251 256 261 263 264 266 270 272 273 275 277 276 276
245 246 249 250 250 247 242 241 243 242 240 241 243 243 243 242 242 244 246 248 248 247 246 245 245 244 242 241 244 248 255 260 264 265 266 267 268 270 272 275 278 279
244 244 244 242 243 245 240 237 238 239 238 239 240 242 243 243 244 246 248 250 251 250 250 250 248 246 243 241 241 244 250 257 263 266 266 265 264 264 266 269 274 277
240 238 236 234 237 240 238 235 234 235 234 234 235 238 240 241 244 247 249 251 252 252 253 253 253 252 249 246 244 243 245 252 260 265 268 268 267 265 265 265 267 271
237 236 233 232 233 236 237 235 235 235 234 232 234 237 239 240 242 245 247 248 250 251 252 253 255 256 253 249 246 244 246 251 258 264 268 272 272 271 271 269 268 270
229 234 233 232 231 233 235 233 232 232 231 230 233 235 236 239 242 244 246 247 249 250 251 252 254 255 253 249 245 245 248 251 255 261 266 271 274 275 275 273 272 273
217 224 230 235 236 234 232 230 229 230 229 229 231 233 235 239 242 244 245 246 248 249 250 251 252 251 248 246 245 246 251 253 254 259 264 268 273 275 275 273 271 272
201 205 212 222 225 222 222 224 226 228 228 228 230 233 237 242 244 244 244 244 244 246 248 250 251 249 246 246 246 248 253 256 257 259 262 264 268 273 275 273 269 269
173 191 196 192 188 190 196 206 215 219 220 221 225 229 235 240 243 244 242 240 240 242 245 246 248 249 249 249 250 251 253 257 259 260 261 261 262 268 271 270 267 266
106 123 164 180 181 179 178 183 194 204 207 211 218 226 232 236 241 245 244 240 239 241 246 249 251 254 255 254 254 254 255 257 258 259 259 259 260 264 267 268 265 263
93 93 102 123 161 177 181 182 181 182 188 196 202 211 221 229 237 246 249 246 243 241 247 255 257 261 263 260 256 256 256 256 257 257 257 257 259 261 264 265 263 261
86 81 82 84 85 97 158 191 193 186 184 187 188 195 208 218 226 233 237 240 240 238 243 250 249 252 262 263 260 258 258 257 257 257 257 257 258 259 261 262 262 262
Height
1596 1598 1599 1601 1602 1603 1604 1605 1606 1607 1608 1608 1609 1610 1610 1611 1611 1612 1613 1613 1614 1615 1615 1616 1616 1617 1617 1617 1618 1619 1619 1620 1621 1621 1622 1622 1623 1623 1623 1623 1624 1624
1595 1596 1597 1599 1600 1602 1603 1604 1605 1605 1606 1607 1608 1609 1609 1610 1610 1611 1612 1613 1613 1614 1615 1615 1616 1616 1617 1617 1617 1618 1619 1620 1620 1621 1621 1621 1622 1622 1622 1623 1623 1623
1593 1595 1596 1597 1599 1600 1602 1603 1604 1604 1605 1606 1606 1607 1608 1609 1610 1610 1611 1612 1613 1614 1614 1615 1615 1616 1616 1616 1617 1617 1618 1619 1619 1620 1620 1620 1621 1621 1622 1622 1622 1623
1592 1593 1595 1596 1598 1599 1601 1602 1603 1603 1604 1605 1605 1606 1607 1608 1609 1609 1610 1611 1611 1612 1613 1614 1614 1615 1615 1616 1616 1617 1617 1618 1618 1619 1619 1619 1620 1620 1621 1621 1622 1622
1591 1592 1593 1595 1596 1598 1599 1600 1601 1602 1603 1604 1605 1606 1606 1607 1608 1608 1609 1610 1610 1611 1612 1613 1614 1614 1615 1615 1616 1616 1616 1617 1617 1618 1618 1618 1619 1619 1620 1620 1621 1621
1589 1590 1592 1593 1595 1596 1598 1599 1600 1601 1602 1603 1604 1605 1606 1606 1607 1607 1608 1609 1610 1610 1611 1612 1613 1613 1614 1614 1615 1615 1616 1616 1617 1617 1617 1617 1618 1618 1618 1619 1619 1620
1588 1589 1590 1592 1593 1594 1596 1597 1599 1600 1601 1602 1603 1604 1605 1605 1606 1607 1607 1608 1609 1610 1610 1611 1612 1612 1613 1614 1614 1615 1615 1616 1616 1616 1616 1617 1617 1617 1617 1618 1618 1619
1586 1587 1589 1590 1591 1593 1594 1595 1597 1598 1599 1601 1602 1603 1604 1605 1606 1606 1607 1608 1608 1609 1609 1610 1611 1611 1612 1613 1613 1614 1614 1615 1615 1615 1616 1616 1616 1616 1617 1617 1617 1617
1585 1586 1587 1588 1589 1591 1592 1594 1595 1597 1598 1599 1600 1602 1602 1604 1605 1605 1606 1607 1607 1608 1608 1609 1610 1611 1611 1612 1612 1613 1613 1614 1614 1614 1615 1615 1615 1615 1616 1616 1616 1616
1583 1584 1586 1587 1588 1589 1590 1592 1594 1595 1596 1597 1599 1600 1601 1602 1603 1604 1605 1605 1606 1607 1607 1608 1609 1609 1610 1611 1611 1612 1612 1613 1613 1613 1614 1614 1614 1614 1614 1615 1615 1615
1581 1582 1584 1585 1586 1588 1589 1590 1592 1593 1594 1595 1597 1598 1599 1600 1601 1602 1603 1604 1605 1605 1606 1607 1608 1608 1609 1610 1610 1611 1611 1612 1612 1612 1612 1613 1613 1613 1613 1613 1614 1614
1579 1580 1581 1583 1584 1586 1587 1588 1589 1591 1592 1593 1594 1596 1597 1598 1599 1600 1601 1602 1603 1604 1604 1605 1606 1607 1607 1608 1609 1609 1610 1610 1610 1611 1611 1611 1612 1612 1612 1612 1612 1613
1576 1578 1579 1581 1582 1583 1585 1586 1587 1588 1589 1591 1592 1593 1595 1596 1597 1598 1599 1600 1601 1601 1602 1603 1604 1605 1605 1606 1607 1607 1608 1609 1609 1609 1610 1610 1610 1610 1610 1611 1611 1611
1572 1575 1577 1578 1580 1581 1582 1584 1585 1586 1587 1588 1590 1591 1592 1593 1594 1595 1596 1597 1598 1599 1600 1601 1601 1602 1603 1604 1605 1606 1606 1607 1607 1608 1608 1608 1609 1609 1609 1609 1609 1610
1570 1572 1574 1576 1577 1579 1580 1581 1582 1583 1584 1586 1587 1588 1589 1591 1592 1593 1594 1595 1596 1596 1597 1598 1599 1600 1600 1601 1603 1604 1604 1605 1605 1606 1606 1607 1607 1607 1607 1607 1608 1608
1567 1569 1571 1573 1574 1576 1577 1578 1580 1581 1582 1583 1584 1585 1587 1588 1589 1590 1591 1593 1593 1594 1595 1595 1596 1597 1598 1599 1600 1601 1602 1603 1603 1604 1604 1604 1605 1605 1605 1606 1606 1606
1564 1566 1567 1569 1571 1572 1573 1575 1576 1578 1579 1581 1582 1583 1584 1585 1587 1588 1589 1590 1591 1592 1593 1593 1594 1594 1595 1596 1597 1598 1600 1600 1601 1601 1602 1602 1602 1603 1603 1604 1604 1604
1561 1563 1564 1566 1567 1568 1570 1571 1572 1574 1576 1578 1579 1580 1581 1582 1584 1585 1586 1587 1588 1589 1590 1591 1592 1593 1593 1594 1595 1596 1597 1598 1598 1599 1599 1600 1600 1600 1601 1601 1601 1602
1558 1560 1561 1562 1563 1564 1567 1568 1570 1572 1574 1575 1576 1577 1578 1580 1581 1582 1583 1584 1585 1586 1587 1588 1589 1590 1591 1592 1593 1594 1595 1595 1596 1596 1597 1597 1598 1598 1598 1599 1599 1600
1556 1556 1557 1558 1559 1561 1564 1566 1567 1569 1571 1572 1574 1574 1576 1577 1578 1579 1580 1581 1582 1583 1584 1585 1586 1587 1589 1590 1590 1591 1592 1593 1593 1593 1594 1594 1595 1595 1596 1596 1597 1597
1553 1554 1554 1555 1556 1558 1561 1563 1565 1567 1568 1569 1570 1571 1573 1574 1575 1576 1577 1579 1580 1581 1582 1583 1583 1584 1586 1587 1588 1589 1589 1589 1590 1590 1591 1591 1592 1592 1593 1593 1594 1594
1552 1553 1553 1553 1554 1556 1558 1561 1563 1564 1565 1566 1567 1568 1570 1571 1573 1573 1574 1576 1577 1577 1579 1580 1580 1581 1582 1583 1584 1585 1586 1586 1587 1587 1587 1588 1589 1589 1590 1590 1591 1591
1552 1553 1553 1553 1553 1553 1555 1558 1560 1561 1562 1563 1564 1566 1567 1569 1570 1570 1571 1572 1573 1574 1575 1576 1577 1578 1579 1580 1581 1582 1583 1583 1583 1584 1584 1584 1585 1586 1586 1587 1587 1588
1553 1553 1553 1553 1552 1552 1553 1555 1557 1558 1559 1560 1561 1563 1565 1566 1567 1568 1568 1569 1570 1571 1572 1573 1574 1575 1575 1576 1577 1578 1579 1580 1580 1580 1581 1581 1582 1582 1582 1583 1584 1584
1553 1554 1553 1553 1552 1552 1552 1553 1555 1556 1557 1558 1559 1561 1562 1563 1564 1565 1566 1566 1567 1568 1569 1570 1572 1573 1573 1573 1574 1575 1576 1576 1577 1577 1577 1577 1578 1578 1579 1579 1580 1580
1555 1555 1554 1554 1553 1553 1553 1554 1555 1555 1556 1557 1558 1560 1561 1562 1563 1564 1564 1565 1565 1566 1566 1568 1569 1570 1571 1572 1573 1574 1574 1574 1574 1574 1574 1574 1574 1574 1575 1576 1576 1577